This demonstration page uses our WeatherBlox Daily Observations layout. Learn more.

Left ArrowRight Arrow

39.51506, -84.39828

Hourly Observations for March 2, 2021

Temp ( °F °C ) Dew Point ( °F °C ) Humidity (%) Winds ( mph kmh ) Pressure ( in mb ) Visibility ( mi km ) Precip ( " mm )
12:15 am 00:15 Clear 28 -2.4 18 -7.9 66 66 NNW 6 9 30.44 1031 10 16.0934 0 0
12:35 am 00:35 Clear 27 -2.7 18 -7.8 68 68 N 6 9 30.44 1031 10 16.0934 0 0
12:55 am 00:55 Clear 27 -2.8 17 -8.1 67 67 N 7 11 30.44 1031 10 16.0934 0 0
1:15 am 01:15 Clear 27 -3 17 -8.3 67 67 N 7 11 30.45 1031 10 16.0934 0 0
1:35 am 01:35 Clear 27 -3 17 -8.5 66 66 N 7 11 30.45 1031 10 16.0934 0 0
1:55 am 01:55 Clear 26 -3.1 16 -8.9 65 65 N 7 11 30.45 1031 10 16.0934 0 0
2:15 am 02:15 Clear 26 -3.6 17 -8.6 69 69 NNE 7 11 30.46 1031 10 16.0934 0 0
2:35 am 02:35 Clear 25 -3.7 17 -8.4 70 70 N 6 9 30.46 1031 10 16.0934 0 0
2:55 am 02:55 Clear 25 -3.7 17 -8.3 71 71 N 8 13 30.45 1031 10 16.0934 0 0
3:15 am 03:15 Clear 25 -3.9 16 -8.8 69 69 N 8 13 30.44 1031 10 16.0934 0 0
3:35 am 03:35 Clear 24 -4.2 16 -8.9 70 70 NNE 6 9 30.45 1031 10 16.0934 0 0
3:55 am 03:55 Clear 24 -4.2 15 -9.7 66 66 NNE 10 17 30.44 1031 10 16.0934 0 0
4:15 am 04:15 Clear 24 -4.4 14 -10 65 65 NNE 10 17 30.44 1031 10 16.0934 0 0
4:35 am 04:35 Clear 24 -4.6 14 -9.8 67 67 NNE 12 19 30.44 1031 10 16.0934 0 0
4:55 am 04:55 Clear 23 -4.8 15 -9.7 69 69 NNE 9 15 30.43 1030 10 16.0934 0 0
5:15 am 05:15 Clear 23 -4.9 14 -9.8 69 69 NNE 8 13 30.44 1031 10 16.0934 0 0
5:35 am 05:35 Clear 22 -5.3 15 -9.7 72 72 NNE 8 13 30.43 1030 10 16.0934 0 0
5:55 am 05:55 Clear 23 -5.2 15 -9.4 73 73 NE 8 13 30.43 1030 10 16.0934 0 0
6:15 am 06:15 Clear 22 -5.4 15 -9.4 74 74 NE 8 13 30.43 1030 10 16.0934 0 0
6:35 am 06:35 Clear 22 -5.7 15 -9.5 75 75 E 6 9 30.43 1031 10 16.0934 0 0
6:55 am 06:55 Clear 21 -5.9 15 -9.7 75 75 ENE 7 11 30.43 1031 10 16.0934 0 0
7:15 am 07:15 Sunny 21 -6.3 15 -9.4 79 79 E 6 9 30.42 1030 10 16.0934 0 0
7:35 am 07:35 Sunny 22 -5.6 15 -9.3 75 75 E 6 9 30.42 1030 10 16.0934 0 0
7:55 am 07:55 Sunny 23 -4.8 15 -9.3 71 71 E 7 11 30.42 1030 10 16.0934 0 0
8:15 am 08:15 Sunny 24 -4.5 15 -9.3 69 69 ENE 6 9 30.42 1030 10 16.0934 0 0
8:35 am 08:35 Sunny 25 -3.8 17 -8.6 70 70 E 7 11 30.42 1030 10 16.0934 0 0
8:55 am 08:55 Sunny 26 -3.5 16 -8.8 67 67 ENE 8 13 30.42 1030 10 16.0934 0 0
9:15 am 09:15 Sunny 27 -2.8 17 -8.5 65 65 ESE 7 11 30.42 1030 10 16.0934 0 0
9:35 am 09:35 Sunny 27 -2.6 16 -8.9 62 62 SE 7 11 30.41 1030 10 16.0934 0 0
9:55 am 09:55 Sunny 29 -1.7 17 -8.6 60 60 SSE 8 13 30.42 1030 10 16.0934 0 0
10:15 am 10:15 Sunny 29 -1.6 15 -9.2 57 57 SSE 7 11 30.41 1030 10 16.0934 0 0
10:35 am 10:35 Sunny 30 -1.1 16 -9 55 55 S 8 13 30.41 1030 10 16.0934 0 0
11:00 am 11:00 Sunny 31 -0.7 16 -8.9 54 54 S 8 13 30.4 1029 10 16.0934 0 0
11:15 am 11:15 Sunny 32 0.2 17 -8.4 53 53 S 8 13 30.4 1029 10 16.0934 0 0
11:35 am 11:35 Sunny 33 0.6 16 -9 49 49 S 9 15 30.38 1029 10 16.0934 0 0
11:55 am 11:55 Sunny 34 1.1 16 -8.9 48 48 SW 9 15 30.38 1029 10 16.0934 0 0
12:15 pm 12:15 Sunny 35 1.9 17 -8.1 48 48 SW 13 20 30.37 1028 10 16.0934 0 0
12:35 pm 12:35 Sunny 36 2.3 16 -8.7 44 44 SSW 12 19 30.36 1028 10 16.0934 0 0
12:55 pm 12:55 Sunny 37 2.9 17 -8.4 44 44 SSW 12 19 30.36 1028 10 16.0934 0 0
1:15 pm 13:15 Sunny 37 2.9 17 -8.5 43 43 SSW 10 17 30.35 1028 10 16.0934 0 0
1:35 pm 13:35 Sunny 38 3.5 15 -9.5 38 38 SSW 8 13 30.33 1027 10 16.0934 0 0
1:55 pm 13:55 Sunny 39 3.8 15 -9.3 38 38 SSW 10 17 30.32 1027 10 16.0934 0 0
2:15 pm 14:15 Sunny 40 4.6 16 -8.7 38 38 S 8 13 30.3 1026 10 16.0934 0 0
2:35 pm 14:35 Sunny 41 4.8 16 -8.7 37 37 SW 7 11 30.28 1025 10 16.0934 0 0
2:55 pm 14:55 Sunny 40 4.7 15 -9.3 36 36 SW 7 11 30.27 1025 10 16.0934 0 0
3:15 pm 15:15 Sunny 42 5.3 16 -9 35 35 S 8 13 30.26 1025 10 16.0934 0 0
3:35 pm 15:35 Sunny 42 5.3 14 -9.8 33 33 S 7 11 30.25 1024 10 16.0934 0 0
3:55 pm 15:55 Sunny 42 5.6 13 -10.3 31 31 SSW 3 6 30.25 1024 10 16.0934 0 0
4:15 pm 16:15 Sunny 43 6.2 14 -9.8 31 31 SW 9 15 30.24 1024 10 16.0934 0 0
4:35 pm 16:35 Sunny 42 5.8 13 -10.5 30 30 WSW 6 9 30.23 1024 10 16.0934 0 0
4:55 pm 16:55 Sunny 42 5.8 13 -10.6 30 30 W 5 7 30.22 1023 10 16.0934 0 0
5:15 pm 17:15 Sunny 42 5.8 13 -10.6 30 30 Calm 30.21 1023 10 16.0934 0 0
5:35 pm 17:35 Sunny 42 5.8 12 -11.1 29 29 WSW 7 11 30.21 1023 10 16.0934 0 0
5:55 pm 17:55 Sunny 42 5.4 13 -10.4 31 31 WSW 8 13 30.2 1023 10 16.0934 0 0
6:15 pm 18:15 Sunny 40 4.4 14 -10 35 35 Calm 30.2 1023 10 16.0934 0 0
6:35 pm 18:35 Clear 39 3.9 15 -9.7 37 37 Calm 30.19 1023 10 16.0934 0 0
6:55 pm 18:55 Clear 35 1.6 22 -5.5 60 60 N 3 6 30.2 1023 10 16.0934 0 0
7:15 pm 19:15 Clear 33 0.5 22 -5.4 65 65 Calm 30.19 1022 10 16.0934 0 0
7:35 pm 19:35 Clear 31 -0.3 21 -6.1 65 65 Calm 30.2 1023 10 16.0934 0 0
7:55 pm 19:55 Clear 31 -0.3 21 -6.2 65 65 Calm 30.19 1022 10 16.0934 0 0
8:15 pm 20:15 Clear 31 -0.8 21 -5.9 69 69 Calm 30.19 1022 10 16.0934 0 0
8:35 pm 20:35 Clear 28 -2 21 -5.9 75 75 Calm 30.19 1022 10 16.0934 0 0
8:55 pm 20:55 Clear 29 -1.4 22 -5.6 73 73 Calm 30.18 1022 10 16.0934 0 0
9:15 pm 21:15 Clear 29 -1.7 22 -5.7 74 74 W 3 6 30.17 1022 10 16.0934 0 0
9:35 pm 21:35 Clear 28 -2.3 21 -6.3 74 74 Calm 30.17 1022 10 16.0934 0 0
9:55 pm 21:55 Clear 28 -2.2 22 -5.6 78 78 Calm 30.17 1022 10 16.0934 0 0
10:15 pm 22:15 Clear 27 -2.7 22 -5.7 80 80 Calm 30.16 1021 10 16.0934 0 0
10:35 pm 22:35 Clear 27 -2.8 22 -5.6 81 81 Calm 30.16 1021 10 16.0934 0 0
10:55 pm 22:55 Clear 26 -3.3 21 -5.9 82 82 Calm 30.15 1021 10 16.0934 0 0
11:15 pm 23:15 Clear 26 -3.4 21 -6.3 81 81 SW 3 6 30.14 1021 10 16.0934 0 0
11:35 pm 23:35 Clear 27 -2.6 22 -5.3 82 82 SW 3 6 30.14 1021 10 16.0934 0 0
11:55 pm 23:55 Clear 27 -3 22 -5.3 84 84 SW 3 6 30.13 1020 10 16.0934 0 0

Powered by AerisWeather